Regional Weather Roundup
Issued by NWS

Home | Current Version | Previous Version | Graphics & Text | Print | Product List | Glossary On
Versions: 1 2 3 4 5 6 7 8 9 10 11 12 13 14 15 16 17 18 19 20 21 22 23 24 25 26 27 28 29 30 31 32 33 34 35 36 37 38 39 40 41 42 43 44 45 46 47 48 49 50
000
ASUS43 KMKX 201221
RWRWI

WISCONSIN REGIONAL WEATHER ROUNDUP
NATIONAL WEATHER SERVICE MILWAUKEE/SULLIVAN WI
700 AM CDT FRI OCT 20 2017

NOTE: "FAIR" INDICATES FEW OR NO CLOUDS BELOW 12,000 FEET WITH NO
SIGNIFICANT WEATHER AND/OR OBSTRUCTIONS TO VISIBILITY.

WIZ001-002-006>008-014>016-023>028-201300-
NORTHWEST WISCONSIN

CITY           SKY/WX    TMP DP  RH WIND       PRES   REMARKS
SUPERIOR ARPT  FAIR      39  38  93 CALM      29.86S
6HR MIN TEMP:  38; 6HR MAX TEMP:  45;

ASHLAND        FAIR      50  42  74 S5        29.89F
6HR MIN TEMP:  41; 6HR MAX TEMP:  55;

HAYWARD        FAIR      50  43  77 S6        29.92F
6HR MIN TEMP:  50; 6HR MAX TEMP:  57;

SIREN          FAIR      55  47  77 S8        29.89S
6HR MIN TEMP:  54; 6HR MAX TEMP:  60;

CUMBERLAND     FAIR      45  41  87 SE3       29.94R
RICE LAKE      FAIR      47  42  80 CALM      29.95F
6HR MIN TEMP:  46; 6HR MAX TEMP:  49;

CHETEK         FAIR      47  42  85 E9        29.95S
6HR MIN TEMP:  46; 6HR MAX TEMP:  49;

LADYSMITH      FAIR      50  43  76 SE5       29.98F
6HR MIN TEMP:  50; 6HR MAX TEMP:  53;

EAU CLAIRE     FAIR      50  44  80 S5        29.96S
6HR MIN TEMP:  41; 6HR MAX TEMP:  51;

MENOMONIE      FAIR      48  45  87 SE7       29.96R
6HR MIN TEMP:  47; 6HR MAX TEMP:  51;

NEW RICHMOND   FAIR      52  47  82 S7        29.92S
6HR MIN TEMP:  51; 6HR MAX TEMP:  54;

OSCEOLA        FAIR      51  47  87 SE8       29.93S
6HR MIN TEMP:  49; 6HR MAX TEMP:  56;

$$

WIZ003>005-009-010-017-018-201300-
NORTH CENTRAL WISCONSIN

CITY           SKY/WX    TMP DP  RH WIND       PRES   REMARKS
MANITOWISH WTR FAIR      43  41  93 S5        29.97S
6HR MIN TEMP:  43; 6HR MAX TEMP:  49;

ARBOR VITAE    FAIR      52  43  73 S8        29.98F
6HR MIN TEMP:  50; 6HR MAX TEMP:  55;

WOODRUFF       FAIR      52  43  73 S8        29.98F
6HR MIN TEMP:  50; 6HR MAX TEMP:  55;

RHINELANDER    FAIR      53  45  74 SW9       30.01S
6HR MIN TEMP:  53; 6HR MAX TEMP:  55;

EAGLE RIVER    FAIR      44  38  80 CALM      30.00S
6HR MIN TEMP:  40; 6HR MAX TEMP:  54;

LAND O LAKES   FAIR      48  40  74 CALM      30.00F
6HR MIN TEMP:  37; 6HR MAX TEMP:  48;

PHILLIPS       FAIR      50  44  79 S7        29.97S
6HR MIN TEMP:  48; 6HR MAX TEMP:  52;

TOMAHAWK       FAIR      37  34  89 CALM      30.01F
6HR MIN TEMP:  37; 6HR MAX TEMP:  44;

MEDFORD        FAIR      44  39  82 S8        30.00F
6HR MIN TEMP:  43; 6HR MAX TEMP:  46;

MERRILL        FAIR      38  37  93 CALM      30.02S
6HR MIN TEMP:  38; 6HR MAX TEMP:  54;

$$

WIZ029-030-035-036-043>047-201300-
CENTRAL WISCONSIN

CITY           SKY/WX    TMP DP  RH WIND       PRES   REMARKS
WAUSAU         FAIR      47  40  76 SE3       30.02S
6HR MIN TEMP:  47; 6HR MAX TEMP:  53;

MOSINEE        CLEAR     46  43  87 S9        30.04S
MARSHFIELD     FAIR      47  41  80 CALM      30.01F
6HR MIN TEMP:  45; 6HR MAX TEMP:  48;

STEVENS POINT  FAIR      46  40  82 CALM      30.04F
6HR MIN TEMP:  40; 6HR MAX TEMP:  50;

WAUPACA        FAIR      44  41  86 CALM      30.06S
6HR MIN TEMP:  44; 6HR MAX TEMP:  52;

WAUTOMA        FAIR      37  36  96 CALM      30.07S
6HR MIN TEMP:  37; 6HR MAX TEMP:  42;

WISC RAPIDS    FAIR      51  44  77 S5        30.04S
6HR MIN TEMP:  50; 6HR MAX TEMP:  52;

CAMP DOUGLAS   CLEAR     52  48  87 S5        30.03S
$$

WIZ011>013-019>022-031-037>040-048>050-201300-
NORTHEAST WISCONSIN

CITY           SKY/WX    TMP DP  RH WIND       PRES   REMARKS
ANTIGO         FAIR      44  39  84 S5        30.04S
6HR MIN TEMP:  44; 6HR MAX TEMP:  50;

SHAWANO        FAIR      49  39  70 CALM      30.05S
6HR MIN TEMP:  47; 6HR MAX TEMP:  52;

OCONTO         FAIR      50  41  71 S3        30.05S
6HR MIN TEMP:  40; 6HR MAX TEMP:  51;

STURGEON BAY   FAIR      52  39  61 S8        30.07S
6HR MIN TEMP:  50; 6HR MAX TEMP:  53;

GREEN BAY      FAIR      51  45  79 S7        30.06S
6HR MIN TEMP:  46; 6HR MAX TEMP:  51;

MANITOWOC      FAIR      48  35  60 S3        30.10R
6HR MIN TEMP:  47; 6HR MAX TEMP:  52;

APPLETON       CLEAR     50  39  66 S6        30.06S
CLINTONVILLE   FAIR      43  37  81 CALM      30.05F
OSHKOSH        FAIR      52  44  74 S12       30.07S
6HR MIN TEMP:  48; 6HR MAX TEMP:  53;

$$

WIZ032>034-041-042-053>061-201300-
SOUTHWEST WISCONSIN

CITY           SKY/WX    TMP DP  RH WIND       PRES   REMARKS
LA CROSSE      FAIR      56  50  80 SE8       30.02R
6HR MIN TEMP:  56; 6HR MAX TEMP:  61;

SPARTA         FAIR      50  46  88 CALM      30.04R
6HR MIN TEMP:  46; 6HR MAX TEMP:  61;

VIROQUA        FAIR      53  50  89 S8        30.05S
6HR MIN TEMP:  53; 6HR MAX TEMP:  57;

BOSCOBEL       FAIR      43  41  93 CALM      30.07R
6HR MIN TEMP:  41; 6HR MAX TEMP:  46;

PRAIRIE DU CHI FAIR      57  48  72 CALM      30.06S
6HR MIN TEMP:  50; 6HR MAX TEMP:  57;

PLATTEVILLE    FAIR      53  51  94 S9        30.09S
6HR MIN TEMP:  52; 6HR MAX TEMP:  56;

$$

WIZ056-057-062-063-064-067-068-201300-
SOUTH CENTRAL WISCONSIN

CITY           SKY/WX    TMP DP  RH WIND       PRES   REMARKS
REEDSBURG      FAIR      54  48  80 S3        30.06S
6HR MIN TEMP:  53; 6HR MAX TEMP:  57;

BARABOO/DELLS  FAIR      52  46  78 S6        30.07R
6HR MIN TEMP:  51; 6HR MAX TEMP:  57;

LONE ROCK      FAIR      46  44  93 CALM      30.08R
6HR MIN TEMP:  44; 6HR MAX TEMP:  53;

MINERAL POINT  FAIR      52  50  93 S7        30.09S
MADISON        FAIR      51  46  83 S6        30.09S
6HR MIN TEMP:  51; 6HR MAX TEMP:  55;

MIDDLETON      FAIR      54  46  76 S5        30.10R
6HR MIN TEMP:  53; 6HR MAX TEMP:  57;

WATERTOWN      FAIR      48  46  92 CALM      30.11S
6HR MIN TEMP:  48; 6HR MAX TEMP:  52;

MONROE         FAIR      52  46  82 S10       30.11R
JANESVILLE     CLEAR     54  46  76 VRB3      30.11S
$$

WIZ051-052-058>065-066-070>072-201300-
SOUTHEAST WISCONSIN

CITY           SKY/WX    TMP DP  RH WIND       PRES   REMARKS
MILWAUKEE      FAIR      53  44  71 SW5       30.14R
6HR MIN TEMP:  53; 6HR MAX TEMP:  56;

WAUKESHA       CLEAR     50  43  76 S8        30.14S
MILWAUKEE/TIMM FAIR      45  36  70 CALM      30.13S
RACINE         FAIR      52  45  77 SW7       30.15S
6HR MIN TEMP:  51; 6HR MAX TEMP:  58;

BURLINGTON     FAIR      42  42 100 CALM      30.13F
6HR MIN TEMP:  40; 6HR MAX TEMP:  44;

KENOSHA        FAIR      48  43  82 SW3       30.14S
6HR MIN TEMP:  46; 6HR MAX TEMP:  53;

FOND DU LAC    FAIR      57  45  64 S7        30.09S
6HR MIN TEMP:  51; 6HR MAX TEMP:  59;

SHEBOYGAN      FAIR      45  39  79 S3        30.10S
6HR MIN TEMP:  41; 6HR MAX TEMP:  46;

WEST BEND      FAIR      45  39  81 CALM      30.11S
JUNEAU         FAIR      51  45  80 S6        30.11S
6HR MIN TEMP:  48; 6HR MAX TEMP:  51;

$$

LSZ147-162-201300-
LAKE SUPERIOR

STATION/POSITION TIME  TEMP    WIND        PRES    WAVE
                       AIR SEA DIR/SP/G            HT/PER
                 (UTC) (F)     (DEG/KT/KT) (MB)    (FT/S)
W MID LAKE BUOY  1150   55 52              1011.8S   1/ 4
DEVILS ISLAND    1200   57     190/  5/  6 1011.9S
SAXON HARBOR     1140   60     180/  8/ 13 1011.5F
$$

LMZ867-665-643>646-201300-
LAKE MICHIGAN

STATION/POSITION TIME  TEMP    WIND        PRES    WAVE
                       AIR SEA DIR/SP/G            HT/PER
                 (UTC)



USA.gov is the U.S. government's official web portal to all federal, state and local government web resources and services.